Location: ??
(34.9170°N, 135.5016°E)
Time: 14:17:44
(UTC+00:00)

Daily predictions for brighter satellites

Satellite Brightness Start Highest point End
(mag) Time Altitude Azimuth Time Altitude Azimuth Time Altitude Azimuth
ATLAS 3B R/B 3.7 18:06:52 39° ENE 18:06:52 39° ENE 18:11:21 10° NE
Cosmos 1833 Rocket 4.3 18:34:21 27° NNE 18:34:21 27° NNE 18:36:48 10° NNE
Cosmos 1656 4.5 18:51:09 42° SSE 18:51:09 42° SSE 18:54:48 10° SSE
Cosmos 2082 Rocket 2.1 18:57:43 79° E 18:57:43 79° E 19:03:14 10° NNE
DELTA 2 R/B (1) 4.1 19:02:37 49° S 19:02:37 49° S 19:07:05 10° SE
ALOS 3.8 18:58:02 10° NNE 19:02:19 35° E 19:06:35 10° SSE
Meteor 1-24 Rocket 4.5 18:57:11 10° SSE 19:02:34 51° E 19:08:10 10° NNE
CENTAUR R/B 4.2 19:08:28 18° NNW 19:08:28 18° NNW 19:11:31 10° N
Nadezhda 4 Rocket 3.8 19:01:18 10° S 19:07:24 86° W 19:13:34 10° N
ATLAS CENTAUR R/B 4.1 19:06:19 10° SSE 19:08:53 16° ESE 19:11:23 10° ENE
ATLAS CENTAUR Rocket 4.0 19:15:38 15° S 19:15:38 15° S 19:16:53 10° S
CZ-3 R/B 3.7 19:00:01 32° WSW 19:15:09 67° S 19:23:55 10° E
Cosmos 2180 Rocket 4.5 19:13:40 10° NNW 19:20:03 54° WSW 19:25:40 10° SSW
Cosmos 1697 Rocket 2.6 19:19:19 27° NNW 19:22:30 88° ENE 19:28:09 10° SSE
GOES 2 Rocket 4.2 19:26:45 36° SSW 19:28:11 44° S 19:34:25 10° ESE
FENGYUN 3A 3.8 19:23:50 10° NNE 19:29:17 75° ESE 19:34:42 10° S
Cosmos 2228 3.0 19:27:15 10° N 19:31:39 82° E 19:36:02 10° S
ADEOS 3.5 19:27:36 10° NNE 19:32:51 85° ESE 19:38:04 10° SSW
Cosmos 1726 Rocket 4.1 19:28:26 10° N 19:32:52 60° E 19:37:15 10° SSE
SJ-6F 4.2 19:29:10 10° N 19:33:16 72° WNW 19:33:48 62° SW
Gblst 52 Del rocket 4.2 19:32:27 32° SW 19:35:07 84° SE 19:41:09 10° NE
Intercosmos 24 3.4 19:39:28 44° NNW 19:40:29 78° W 19:44:16 10° S
Meteor 2-5 Rocket 3.8 19:35:14 10° SSW 19:40:44 53° W 19:46:25 10° N
Cosmos 1484 Rocket 2.5 19:40:20 10° N 19:44:08 72° WNW 19:47:51 10° SSW
Cosmos 1992 Rocket 3.9 19:40:44 10° NNW 19:45:58 83° WSW 19:51:10 10° SSE
Cosmos 1980 Rocket 2.4 19:40:28 10° NNW 19:46:03 72° ENE 19:51:38 10° SSE
Cosmos 1606 Rocket 3.5 19:44:56 10° NNW 19:49:22 65° W 19:53:46 10° S
Cosmos 1428 Rocket 4.4 19:44:26 10° S 19:50:41 89° W 19:56:54 10° N
SAR-Lupe-4 4.3 19:49:18 10° SSE 19:52:46 54° ENE 19:56:16 10° N
H-2A R/B 3.7 19:50:12 10° SSW 19:52:01 20° SW 19:52:01 20° SW
Cosmos 220 Rocket 4.1 19:51:53 25° NW 19:54:13 52° WSW 19:58:28 10° S
CZ-4B R/B 1.3 19:51:12 10° S 19:54:39 82° WSW 19:58:05 10° NNW
CZ-2C R/B 3.9 19:51:37 10° NNW 19:53:34 19° NW 19:53:34 19° NW
ATLAS 3B R/B 3.4 19:54:11 26° WNW 19:55:54 30° NW 20:01:37 10° NNE
COSMO-SKYMED 1 3.8 19:51:59 10° SE 19:56:05 44° ENE 20:00:13 10° N
Cosmos 614 Rocket 3.8 19:51:45 10° SSW 19:56:53 72° WNW 20:02:00 10° NNE
ADEOS Rocket 3.3 19:52:10 10° SSW 19:57:05 33° W 20:02:04 10° NNW
Cosmos 2084 4.5 19:57:42 27° NW 19:57:42 27° NW 20:01:25 10° N
ERS-2 2.3 19:57:27 10° S 20:00:58 48° W 20:03:40 16° NNW
SJ-12 3.9 19:58:14 10° NNE 20:02:22 83° ESE 20:06:25 10° S
Cosmos 2026 Rocket 4.0 19:57:45 10° SSW 20:04:04 66° W 20:10:26 10° N
SL-19 R/B 3.5 20:03:59 10° N 20:06:48 56° WNW 20:09:48 10° SSW
Meteor 1-31 Rocket 3.0 20:05:41 10° N 20:09:28 47° WNW 20:13:13 10° SSW
Cosmos 2360 4.5 20:04:18 10° NW 20:09:41 45° WSW 20:15:02 10° S
SAR-Lupe-1 4.0 20:06:55 10° SSE 20:10:32 89° ESE 20:14:11 10° NNW
deb Chang Zheng 4 4.0 20:10:54 10° N 20:14:49 37° WNW 20:18:45 10° SW
Cosmos 1833 Rocket 4.5 20:16:06 12° NW 20:16:06 12° NW 20:18:03 10° NNW
Abrixas rocket 2.9 20:14:09 18° NNW 20:15:57 40° NE 20:18:38 10° ESE
Cosmos 2322 Rocket 4.1 20:14:09 10° N 20:19:03 29° ENE 20:23:54 10° ESE
METEOR-M 4.4 20:14:02 10° N 20:19:06 45° WNW 20:24:07 10° SW
Cosmos 2278 3.8 20:14:18 10° NNW 20:19:48 54° WSW 20:25:16 10° S
Cosmos 1023 Rocket 4.4 20:15:41 10° SSW 20:20:46 82° WNW 20:25:52 10° NNE
Okean 1-7 Rocket 4.1 20:21:32 10° SSW 20:25:44 37° W 20:29:57 10° N
PSLV R/B 4.0 20:22:23 10° SSE 20:26:35 87° ENE 20:30:49 10° NNW
SL-27 R/B 2.5 20:23:14 10° SSW 20:26:48 89° ESE 20:30:26 10° NNE
Cosmos 2058 Rocket 3.3 20:23:13 10° NNW 20:27:33 49° W 20:31:49 10° SSW
BREEZE-M DEB (TANK) 2.2 20:27:08 18° W 20:28:24 29° SW 20:30:24 10° SSE
Uosat 12 SS-18 rocket 4.2 20:26:18 10° SW 20:31:13 61° WNW 20:35:34 10° NNE
CZ-4B R/B 3.2 20:28:23 10° N 20:32:24 49° WNW 20:36:35 10° SSW
Cosmos 1190 Rocket 4.0 20:29:01 10° SSW 20:34:12 64° WNW 20:39:24 10° N
ALOS 3.6 20:36:09 10° NNW 20:39:26 19° WNW 20:42:44 10° WSW
Cosmos 2082 Rocket 3.8 20:39:43 10° W 20:42:21 13° NW 20:44:58 10° NNW
SKYMED 2 3.8 20:39:57 10° S 20:44:07 47° W 20:48:19 10° NNW
Cosmos 2292 Rocket 2.8 20:41:51 10° SSW 20:44:51 66° W 20:48:25 10° N
Cosmos 1300 4.5 20:44:17 10° WNW 20:46:07 13° W 20:47:56 10° WSW
ATLAS CENTAUR R/B 2.0 20:43:57 10° WSW 20:47:31 31° NW 20:50:57 10° N
Cosmos 2098 Rocket 3.8 20:42:35 10° SSW 20:48:42 55° W 20:53:37 10° N
Cosmos 1400 Rocket 4.3 20:46:54 10° NW 20:49:23 16° W 20:51:52 10° SW
Cosmos 1626 Rocket 4.0 20:46:09 10° SSW 20:50:21 41° W 20:54:36 10° N
Cosmos 1140 Rocket 3.9 20:47:47 10° SW 20:52:35 41° WNW 20:57:26 10° N
Cosmos 1602 Rocket 3.7 20:49:46 10° SSW 20:54:04 52° W 20:58:26 10° N
Cosmos 407 Rocket 4.2 20:50:09 10° SW 20:54:39 31° WNW 20:59:13 10° N
Envisat 3.2 20:51:14 10° NNE 20:56:20 80° ESE 21:01:24 10° S
SL-16 R/B 2.4 20:50:52 10° NNW 20:56:34 78° ENE 21:02:13 10° SSE
